Time,TemperatureF,DewpointF,PressureIn,WindDirection,WindDirectionDegrees,WindSpeedMPH,WindSpeedGustMPH,Humidity,HourlyPrecipIn,Conditions,Clouds,dailyrainin,SolarRadiationWatts/m^2,SoftwareType,DateUTC
2013-05-18 00:02:00,82.0,71.0,-100.00,South,174,10.0,17.0,70,0.00,,,0.00,302.000000,,2013-05-18 00:02:00,
2013-05-18 00:34:00,79.0,70.0,-100.00,South,169,8.0,19.0,75,0.00,,,0.00,116.000000,,2013-05-18 00:34:00,
2013-05-18 00:45:00,79.0,70.0,-100.00,South,169,8.0,19.0,75,0.00,,,0.00,116.000000,,2013-05-18 00:45:00,
2013-05-18 00:54:00,79.0,70.0,-100.00,South,169,8.0,19.0,75,0.00,,,0.00,116.000000,,2013-05-18 00:54:00,
2013-05-18 01:02:00,79.0,70.0,-100.00,South,169,8.0,19.0,75,0.00,,,0.00,116.000000,,2013-05-18 01:02:00,
2013-05-18 01:32:00,76.0,70.0,-100.00,SSE,154,4.0,13.0,83,0.00,,,0.00,28.000000,,2013-05-18 01:32:00,
2013-05-18 01:43:00,76.0,70.0,-100.00,SSE,154,4.0,13.0,83,0.00,,,0.00,28.000000,,2013-05-18 01:43:00,
2013-05-18 01:52:00,76.0,70.0,-100.00,SSE,154,4.0,13.0,83,0.00,,,0.00,28.000000,,2013-05-18 01:52:00,
2013-05-18 02:02:00,76.0,70.0,-100.00,SSE,154,4.0,13.0,83,0.00,,,0.00,28.000000,,2013-05-18 02:02:00,
2013-05-18 02:32:00,74.0,70.0,-100.00,SSE,160,5.0,9.0,88,0.00,,,0.00,0.000000,,2013-05-18 02:32:00,
2013-05-18 02:43:00,74.0,70.0,-100.00,SSE,160,5.0,9.0,88,0.00,,,0.00,0.000000,,2013-05-18 02:43:00,
2013-05-18 02:54:00,74.0,70.0,-100.00,SSE,160,5.0,9.0,88,0.00,,,0.00,0.000000,,2013-05-18 02:54:00,
2013-05-18 03:02:00,74.0,70.0,-100.00,SSE,160,5.0,9.0,88,0.00,,,0.00,0.000000,,2013-05-18 03:02:00,
2013-05-18 03:33:00,72.0,70.0,-100.00,SSE,160,6.0,10.0,92,0.00,,,0.00,0.000000,,2013-05-18 03:33:00,
2013-05-18 03:43:00,72.0,70.0,-100.00,SSE,160,6.0,10.0,92,0.00,,,0.00,0.000000,,2013-05-18 03:43:00,
2013-05-18 03:53:00,72.0,70.0,-100.00,SSE,160,6.0,10.0,92,0.00,,,0.00,0.000000,,2013-05-18 03:53:00,
2013-05-18 04:02:00,72.0,70.0,-100.00,SSE,160,6.0,10.0,92,0.00,,,0.00,0.000000,,2013-05-18 04:02:00,
2013-05-18 04:33:00,72.0,70.0,-100.00,SSE,156,6.0,10.0,94,0.00,,,0.00,0.000000,,2013-05-18 04:33:00,
2013-05-18 04:43:00,72.0,70.0,-100.00,SSE,156,6.0,10.0,94,0.00,,,0.00,0.000000,,2013-05-18 04:43:00,
2013-05-18 04:52:00,72.0,70.0,-100.00,SSE,156,6.0,10.0,94,0.00,,,0.00,0.000000,,2013-05-18 04:52:00,
2013-05-18 05:02:00,72.0,70.0,-100.00,SSE,156,6.0,10.0,94,0.00,,,0.00,0.000000,,2013-05-18 05:02:00,
2013-05-18 05:32:00,72.0,70.0,-100.00,SSE,158,6.0,11.0,95,0.00,,,0.00,0.000000,,2013-05-18 05:32:00,
2013-05-18 05:42:00,72.0,70.0,-100.00,SSE,158,6.0,11.0,95,0.00,,,0.00,0.000000,,2013-05-18 05:42:00,
2013-05-18 05:52:00,72.0,70.0,-100.00,SSE,158,6.0,11.0,95,0.00,,,0.00,0.000000,,2013-05-18 05:52:00,
2013-05-18 06:02:00,72.0,70.0,-100.00,SSE,158,6.0,11.0,95,0.00,,,0.00,0.000000,,2013-05-18 06:02:00,
2013-05-18 06:32:00,72.0,71.0,-100.00,SSE,158,6.0,10.0,96,0.00,,,0.00,0.000000,,2013-05-18 06:32:00,
2013-05-18 06:42:00,72.0,71.0,-100.00,SSE,158,6.0,10.0,96,0.00,,,0.00,0.000000,,2013-05-18 06:42:00,
2013-05-18 06:52:00,72.0,71.0,-100.00,SSE,158,6.0,10.0,96,0.00,,,0.00,0.000000,,2013-05-18 06:52:00,
2013-05-18 07:01:00,72.0,71.0,-100.00,SSE,158,6.0,10.0,96,0.00,,,0.00,0.000000,,2013-05-18 07:01:00,
2013-05-18 07:32:00,73.0,71.0,-100.00,South,169,5.0,10.0,95,0.00,,,0.00,0.000000,,2013-05-18 07:32:00,
2013-05-18 07:43:00,73.0,71.0,-100.00,South,169,5.0,10.0,95,0.00,,,0.00,0.000000,,2013-05-18 07:43:00,
2013-05-18 07:52:00,73.0,71.0,-100.00,South,169,5.0,10.0,95,0.00,,,0.00,0.000000,,2013-05-18 07:52:00,
2013-05-18 08:01:00,73.0,71.0,-100.00,South,169,5.0,10.0,95,0.00,,,0.00,0.000000,,2013-05-18 08:01:00,
2013-05-18 08:33:00,73.0,71.0,-100.00,South,171,6.0,14.0,93,0.00,,,0.00,0.000000,,2013-05-18 08:33:00,
2013-05-18 08:42:00,73.0,71.0,-100.00,South,171,6.0,14.0,93,0.00,,,0.00,0.000000,,2013-05-18 08:42:00,
2013-05-18 08:52:00,73.0,71.0,-100.00,South,171,6.0,14.0,93,0.00,,,0.00,0.000000,,2013-05-18 08:52:00,
2013-05-18 09:02:00,73.0,71.0,-100.00,South,171,6.0,14.0,93,0.00,,,0.00,0.000000,,2013-05-18 09:02:00,
2013-05-18 09:33:00,74.0,71.0,-100.00,South,187,5.0,14.0,89,0.00,,,0.00,0.000000,,2013-05-18 09:33:00,
2013-05-18 09:43:00,74.0,71.0,-100.00,South,187,5.0,14.0,89,0.00,,,0.00,0.000000,,2013-05-18 09:43:00,
2013-05-18 09:53:00,74.0,71.0,-100.00,South,187,5.0,14.0,89,0.00,,,0.00,0.000000,,2013-05-18 09:53:00,
2013-05-18 10:03:00,74.0,71.0,-100.00,South,187,5.0,14.0,89,0.00,,,0.00,0.000000,,2013-05-18 10:03:00,
2013-05-18 10:33:00,74.0,71.0,-100.00,South,175,4.0,9.0,90,0.00,,,-99.99,0.000000,,2013-05-18 10:33:00,
2013-05-18 10:42:00,74.0,71.0,-100.00,South,175,4.0,9.0,90,0.00,,,-99.99,0.000000,,2013-05-18 10:42:00,
2013-05-18 10:53:00,74.0,71.0,-100.00,South,175,4.0,9.0,90,0.00,,,-99.99,0.000000,,2013-05-18 10:53:00,
2013-05-18 11:03:00,74.0,71.0,-100.00,South,175,4.0,9.0,90,0.00,,,-99.99,0.000000,,2013-05-18 11:03:00,
2013-05-18 11:33:00,73.0,71.0,-100.00,South,172,4.0,8.0,92,0.00,,,0.00,0.000000,,2013-05-18 11:33:00,
2013-05-18 11:42:00,73.0,71.0,-100.00,South,172,4.0,8.0,92,0.00,,,0.00,0.000000,,2013-05-18 11:42:00,
2013-05-18 11:52:00,73.0,71.0,-100.00,South,172,4.0,8.0,92,0.00,,,0.00,0.000000,,2013-05-18 11:52:00,
2013-05-18 12:01:00,73.0,71.0,-100.00,South,172,4.0,8.0,92,0.00,,,0.00,0.000000,,2013-05-18 12:01:00,
2013-05-18 12:33:00,73.0,71.0,-100.00,South,173,5.0,9.0,94,0.00,,,0.00,20.000000,,2013-05-18 12:33:00,
2013-05-18 12:42:00,73.0,71.0,-100.00,South,173,5.0,9.0,94,0.00,,,0.00,20.000000,,2013-05-18 12:42:00,
2013-05-18 12:52:00,73.0,71.0,-100.00,South,173,5.0,9.0,94,0.00,,,0.00,20.000000,,2013-05-18 12:52:00,
2013-05-18 13:01:00,73.0,71.0,-100.00,South,173,5.0,9.0,94,0.00,,,0.00,20.000000,,2013-05-18 13:01:00,
2013-05-18 13:33:00,75.0,71.0,-100.00,South,179,5.0,11.0,88,0.00,,,0.00,66.000000,,2013-05-18 13:33:00,
2013-05-18 13:43:00,75.0,71.0,-100.00,South,179,5.0,11.0,88,0.00,,,0.00,66.000000,,2013-05-18 13:43:00,
2013-05-18 13:53:00,75.0,71.0,-100.00,South,179,5.0,11.0,88,0.00,,,0.00,66.000000,,2013-05-18 13:53:00,
2013-05-18 14:03:00,75.0,71.0,-100.00,South,179,5.0,11.0,88,0.00,,,0.00,66.000000,,2013-05-18 14:03:00,
2013-05-18 14:33:00,77.0,71.0,-100.00,South,186,7.0,15.0,81,0.00,,,0.00,154.000000,,2013-05-18 14:33:00,
2013-05-18 14:42:00,77.0,71.0,-100.00,South,186,7.0,15.0,81,0.00,,,0.00,154.000000,,2013-05-18 14:42:00,
2013-05-18 14:54:00,77.0,71.0,-100.00,South,186,7.0,15.0,81,0.00,,,0.00,154.000000,,2013-05-18 14:54:00,
2013-05-18 15:03:00,77.0,71.0,-100.00,South,186,7.0,15.0,81,0.00,,,0.00,154.000000,,2013-05-18 15:03:00,
2013-05-18 15:33:00,80.0,70.0,-100.00,South,178,8.0,16.0,72,0.00,,,-99.99,404.000000,,2013-05-18 15:33:00,
2013-05-18 15:43:00,80.0,70.0,-100.00,South,178,8.0,16.0,72,0.00,,,-99.99,404.000000,,2013-05-18 15:43:00,
2013-05-18 15:53:00,80.0,70.0,-100.00,South,178,8.0,16.0,72,0.00,,,-99.99,404.000000,,2013-05-18 15:53:00,
2013-05-18 16:02:00,80.0,70.0,-100.00,South,178,8.0,16.0,72,0.00,,,-99.99,404.000000,,2013-05-18 16:02:00,
2013-05-18 16:33:00,84.0,73.0,-100.00,South,178,7.0,15.0,69,0.00,,,0.00,677.000000,,2013-05-18 16:33:00,
2013-05-18 16:42:00,84.0,73.0,-100.00,South,178,7.0,15.0,69,0.00,,,0.00,677.000000,,2013-05-18 16:42:00,
2013-05-18 16:52:00,84.0,73.0,-100.00,South,178,7.0,15.0,69,0.00,,,0.00,677.000000,,2013-05-18 16:52:00,
2013-05-18 17:02:00,84.0,73.0,-100.00,South,178,7.0,15.0,69,0.00,,,0.00,677.000000,,2013-05-18 17:02:00,
2013-05-18 17:33:00,86.0,72.0,-100.00,SSE,166,9.0,18.0,63,0.00,,,0.00,777.000000,,2013-05-18 17:33:00,
2013-05-18 17:42:00,86.0,72.0,-100.00,SSE,166,9.0,18.0,63,0.00,,,0.00,777.000000,,2013-05-18 17:42:00,
2013-05-18 17:52:00,86.0,72.0,-100.00,SSE,166,9.0,18.0,63,0.00,,,0.00,777.000000,,2013-05-18 17:52:00,
2013-05-18 18:01:00,86.0,72.0,-100.00,SSE,166,9.0,18.0,63,0.00,,,0.00,777.000000,,2013-05-18 18:01:00,
2013-05-18 18:32:00,87.0,71.0,-100.00,SSE,168,8.0,16.0,60,0.00,,,0.00,881.000000,,2013-05-18 18:32:00,
2013-05-18 18:42:00,87.0,71.0,-100.00,SSE,168,8.0,16.0,60,0.00,,,0.00,881.000000,,2013-05-18 18:42:00,
2013-05-18 18:52:00,87.0,71.0,-100.00,SSE,168,8.0,16.0,60,0.00,,,0.00,881.000000,,2013-05-18 18:52:00,
2013-05-18 19:02:00,87.0,71.0,-100.00,SSE,168,8.0,16.0,60,0.00,,,0.00,881.000000,,2013-05-18 19:02:00,
2013-05-18 19:32:00,89.0,72.0,-100.00,South,174,7.0,15.0,58,0.00,,,0.00,921.000000,,2013-05-18 19:32:00,
2013-05-18 19:42:00,89.0,72.0,-100.00,South,174,7.0,15.0,58,0.00,,,0.00,921.000000,,2013-05-18 19:42:00,
2013-05-18 19:52:00,89.0,72.0,-100.00,South,174,7.0,15.0,58,0.00,,,0.00,921.000000,,2013-05-18 19:52:00,
2013-05-18 20:02:00,89.0,72.0,-100.00,South,174,7.0,15.0,58,0.00,,,0.00,921.000000,,2013-05-18 20:02:00,
2013-05-18 20:32:00,88.0,69.0,-100.00,South,173,8.0,19.0,54,0.00,,,0.00,825.000000,,2013-05-18 20:32:00,
2013-05-18 20:42:00,88.0,69.0,-100.00,South,173,8.0,19.0,54,0.00,,,0.00,825.000000,,2013-05-18 20:42:00,
2013-05-18 20:52:00,88.0,69.0,-100.00,South,173,8.0,19.0,54,0.00,,,0.00,825.000000,,2013-05-18 20:52:00,
2013-05-18 21:01:00,88.0,69.0,-100.00,South,173,8.0,19.0,54,0.00,,,0.00,825.000000,,2013-05-18 21:01:00,
2013-05-18 21:33:00,89.0,70.0,-100.00,SSE,163,8.0,16.0,54,0.00,,,0.00,778.000000,,2013-05-18 21:33:00,
2013-05-18 21:44:00,89.0,70.0,-100.00,SSE,163,8.0,16.0,54,0.00,,,0.00,778.000000,,2013-05-18 21:44:00,
2013-05-18 21:53:00,89.0,70.0,-100.00,SSE,163,8.0,16.0,54,0.00,,,0.00,778.000000,,2013-05-18 21:53:00,
2013-05-18 22:03:00,89.0,70.0,-100.00,SSE,163,8.0,16.0,54,0.00,,,0.00,778.000000,,2013-05-18 22:03:00,
2013-05-18 22:33:00,87.0,69.0,-100.00,SSE,160,8.0,18.0,55,0.00,,,0.00,572.000000,,2013-05-18 22:33:00,
2013-05-18 22:42:00,87.0,69.0,-100.00,SSE,160,8.0,18.0,55,0.00,,,0.00,572.000000,,2013-05-18 22:42:00,
2013-05-18 22:53:00,87.0,69.0,-100.00,SSE,160,8.0,18.0,55,0.00,,,0.00,572.000000,,2013-05-18 22:53:00,
2013-05-18 23:01:00,87.0,69.0,-100.00,SSE,160,8.0,18.0,55,0.00,,,0.00,572.000000,,2013-05-18 23:01:00,
2013-05-18 23:32:00,85.0,70.0,-100.00,SE,145,6.0,16.0,60,0.00,,,-99.99,362.000000,,2013-05-18 23:32:00,
2013-05-18 23:42:00,85.0,70.0,-100.00,SE,145,6.0,16.0,60,0.00,,,-99.99,362.000000,,2013-05-18 23:42:00,
2013-05-18 23:53:00,85.0,70.0,-100.00,SE,145,6.0,16.0,60,0.00,,,-99.99,362.000000,,2013-05-18 23:53:00,